LU5DTF-1 Weather Reports


time (UTC)temp
C
wind
direction
speed
KPH
gust
KPH
rain 1hr
cm
rain 24hr
cm
rain mn
cm
humidity
%
barometer
mb
20260505125003 16 36 1.6 6.4 0.00 0.00 0.00 72 1013.1
20260505124503 17 317 0.0 3.2 0.00 0.00 0.00 65 1013.0
20260505124003 17 299 0.0 3.2 0.00 0.00 0.00 66 1013.0
20260505123503 16 284 1.6 6.4 0.00 0.00 0.00 66 1013.0
20260505123003 16 276 3.2 9.7 0.00 0.00 0.00 66 1013.0
20260505122503 16 276 3.2 9.7 0.00 0.00 0.00 66 1013.1
20260505122003 16 286 1.6 6.4 0.00 0.00 0.00 68 1013.1
20260505121503 16 319 0.0 3.2 0.00 0.00 0.00 70 1013.1
20260505121003 16 25 0.0 1.6 0.00 0.00 0.00 70 1013.0
20260505120503 15 55 1.6 4.8 0.00 0.00 0.00 71 1012.9
20260505120003 15 62 3.2 6.4 0.00 0.00 0.00 73 1012.8
20260505115503 15 62 4.8 6.4 0.00 0.00 0.00 74 1012.7
20260505115003 15 58 3.2 6.4 0.00 0.00 0.00 75 1012.8
20260505114503 15 48 1.6 6.4 0.00 0.00 0.00 76 1012.8
20260505114003 15 38 0.0 3.2 0.00 0.00 0.00 75 1012.8
20260505113503 15 42 0.0 3.2 0.00 0.00 0.00 73 1012.8
20260505113003 15 349 0.0 1.6 0.00 0.00 0.00 73 1012.8
20260505112503 15 270 0.0 3.2 0.00 0.00 0.00 72 1012.6
20260505112003 15 271 0.0 3.2 0.00 0.00 0.00 72 1012.5
20260505111503 15 289 0.0 1.6 0.00 0.00 0.00 72 1012.4
20260505111003 14 264 0.0 1.6 0.00 0.00 0.00 72 1012.6
20260505110503 14 280 0.0 1.6 0.00 0.00 0.00 72 1012.5
20260505102003 14 267 1.6 4.8 0.00 0.00 0.00 72 1012.3
20260505101503 14 266 0.0 3.2 0.00 0.00 0.00 72 1012.2
20260505101003 14 0 0.0 0.0 0.00 0.00 0.00 72 1012.2
20260505100502 14 0 0.0 0.0 0.00 0.00 0.00 72 1012.2
20260505100003 13 0 0.0 0.0 0.00 0.00 0.00 73 1012.3
20260505095505 14 314 0.0 1.6 0.00 0.00 0.00 73 1012.4
20260505095002 14 307 0.0 1.6 0.00 0.00 0.00 73 1012.2
20260505094503 14 292 0.0 1.6 0.00 0.00 0.00 71 1012.3
20260505094002 14 229 0.0 1.6 0.00 0.00 0.00 72 1012.1
20260505093503 14 259 1.6 4.8 0.00 0.00 0.00 72 1012.0
20260505093003 14 270 3.2 6.4 0.00 0.00 0.00 70 1011.8
20260505092503 14 274 6.4 9.7 0.00 0.00 0.00 71 1011.6
20260505092002 14 276 6.4 9.7 0.00 0.00 0.00 70 1011.5
20260505091503 14 275 6.4 9.7 0.00 0.00 0.00 71 1011.5
20260505091003 14 274 6.4 9.7 0.00 0.00 0.00 72 1011.5
20260505090502 14 272 6.4 9.7 0.00 0.00 0.00 72 1011.4
20260505090003 14 273 6.4 9.7 0.00 0.00 0.00 73 1011.5
20260505085503 13 276 8.0 11.3 0.00 0.00 0.00 74 1011.6
20260505085002 13 275 8.0 11.3 0.00 0.00 0.00 76 1011.5
20260505084502 13 274 8.0 9.7 0.00 0.00 0.00 76 1011.4
20260505084002 13 274 8.0 11.3 0.00 0.00 0.00 76 1011.1
20260505083502 13 274 9.7 12.9 0.00 0.00 0.00 76 1010.9
20260505083002 13 276 9.7 12.9 0.00 0.00 0.00 76 1010.9
20260505082502 13 274 8.0 12.9 0.00 0.00 0.00 76 1010.9
20260505082002 13 272 8.0 12.9 0.00 0.00 0.00 75 1010.7
20260505081502 13 272 8.0 11.3 0.00 0.00 0.00 74 1010.7
20260505081002 14 275 6.4 11.3 0.00 0.00 0.00 74 1010.5
20260505080503 14 274 6.4 11.3 0.00 0.00 0.00 73 1010.5
20260505080003 14 273 8.0 12.9 0.00 0.00 0.00 72 1010.4
20260505075503 15 276 6.4 12.9 0.00 0.00 0.00 71 1010.5
20260505075002 15 282 4.8 9.7 0.00 0.00 0.00 71 1010.5
20260505074503 15 296 3.2 6.4 0.00 0.00 0.00 71 1010.1
20260505074002 15 303 3.2 8.0 0.00 0.00 0.00 71 1010.1
20260505073503 15 305 4.8 11.3 0.00 0.00 0.00 71 1010.0
20260505073002 15 302 6.4 11.3 0.00 0.00 0.00 71 1009.9
20260505072503 15 290 4.8 9.7 0.00 0.00 0.00 71 1010.2
20260505072003 15 278 6.4 9.7 0.00 0.00 0.00 71 1010.3
20260505071503 15 278 4.8 9.7 0.00 0.00 0.00 71 1010.3
20260505071003 15 279 4.8 9.7 0.00 0.00 0.00 71 1010.3
20260505070503 15 275 6.4 11.3 0.00 0.00 0.00 72 1010.1
20260505070003 15 274 8.0 11.3 0.00 0.00 0.00 71 1010.1
20260505065502 15 284 6.4 12.9 0.00 0.00 0.00 71 1010.3
20260505065002 15 291 6.4 12.9 0.00 0.00 0.00 71 1010.2
20260505064502 15 286 8.0 12.9 0.00 0.00 0.00 72 1010.2
20260505064002 15 284 8.0 14.5 0.00 0.00 0.00 72 1010.3
20260505063503 15 282 9.7 14.5 0.00 0.00 0.00 72 1010.3
20260505063003 14 279 9.7 14.5 0.00 0.00 0.00 73 1010.4
20260505062502 14 277 9.7 14.5 0.00 0.00 0.00 72 1010.3
20260505062002 14 280 9.7 14.5 0.00 0.00 0.00 72 1010.4
20260505061502 15 279 9.7 12.9 0.00 0.00 0.00 72 1010.3
20260505061003 15 273 6.4 11.3 0.00 0.00 0.00 71 1010.2
20260505060502 15 275 4.8 11.3 0.00 0.00 0.00 71 1010.2
20260505060003 15 295 3.2 6.4 0.00 0.00 0.00 70 1010.2
20260505055503 15 300 4.8 8.0 0.00 0.00 0.00 70 1010.2
20260505055002 15 295 6.4 9.7 0.00 0.00 0.00 70 1010.2
20260505054502 15 291 8.0 12.9 0.00 0.00 0.00 70 1010.3
20260505054002 15 290 8.0 14.5 0.00 0.00 0.00 70 1010.2
20260505053502 15 287 9.7 14.5 0.00 0.00 0.00 69 1010.4
20260505053002 15 287 6.4 14.5 0.00 0.00 0.00 69 1010.2
20260505052502 15 292 4.8 9.7 0.00 0.00 0.00 69 1010.2
20260505052003 15 304 6.4 11.3 0.00 0.00 0.00 68 1010.1
20260505051503 15 309 8.0 12.9 0.00 0.00 0.00 68 1010.1
20260505051003 15 310 9.7 14.5 0.00 0.00 0.00 68 1010.1
20260505050502 15 308 11.3 17.7 0.00 0.00 0.00 68 1009.9
20260505041502 15 343 3.2 8.0 0.00 0.00 0.00 65 1010.2
20260505041002 15 325 1.6 4.8 0.00 0.00 0.00 66 1010.5
20260505040502 15 330 3.2 6.4 0.00 0.00 0.00 66 1010.5
20260505040003 15 331 3.2 6.4 0.00 0.00 0.00 66 1010.4
20260505035503 15 323 1.6 4.8 0.00 0.00 0.00 66 1010.4
20260505035002 15 324 1.6 4.8 0.00 0.00 0.00 66 1010.4
20260505034502 15 325 0.0 3.2 0.00 0.00 0.00 66 1010.4
20260505034002 15 294 0.0 1.6 0.00 0.00 0.00 67 1010.3
20260505033502 15 298 0.0 4.8 0.00 0.00 0.00 67 1010.3
20260505033002 15 302 1.6 4.8 0.00 0.00 0.00 67 1010.3
20260505032502 15 302 1.6 6.4 0.00 0.00 0.00 68 1010.3
20260505032002 15 287 3.2 11.3 0.00 0.00 0.00 70 1010.3
20260505031502 15 284 3.2 11.3 0.00 0.00 0.00 69 1010.3
20260505031003 15 293 4.8 6.4 0.00 0.00 0.00 69 1010.3
20260505025502 15 275 3.2 8.0 0.00 0.00 0.00 71 1010.3
20260505025002 15 286 0.0 4.8 0.00 0.00 0.00 71 1010.1
20260505024502 15 308 0.0 1.6 0.00 0.00 0.00 71 1010.0
20260505024002 15 304 0.0 1.6 0.00 0.00 0.00 70 1009.9
20260505023503 15 307 0.0 3.2 0.00 0.00 0.00 71 1010.1
20260505023003 15 312 0.0 3.2 0.00 0.00 0.00 71 1010.0
20260505022503 15 303 3.2 8.0 0.00 0.00 0.00 72 1010.0
20260505022002 15 302 4.8 8.0 0.00 0.00 0.00 72 1010.1
20260505021502 15 297 3.2 6.4 0.00 0.00 0.00 72 1010.2
20260505021002 15 283 3.2 6.4 0.00 0.00 0.00 72 1010.1
20260505020503 15 270 3.2 6.4 0.00 0.00 0.00 73 1010.1
20260505020002 15 257 1.6 3.2 0.00 0.00 0.00 73 1010.0
20260505015502 15 262 1.6 3.2 0.00 0.00 0.00 73 1010.1
20260505015002 15 273 1.6 3.2 0.00 0.00 0.00 72 1009.9
20260505014502 15 276 1.6 3.2 0.00 0.00 0.00 72 1010.0
20260505014002 15 281 0.0 1.6 0.00 0.00 0.00 72 1009.9
20260505013502 15 0 0.0 0.0 0.00 0.00 0.00 72 1009.7
20260505013003 15 0 0.0 0.0 0.00 0.00 0.00 72 1009.7
20260505012503 15 0 0.0 0.0 0.00 0.00 0.00 72 1009.8
20260505012002 15 288 0.0 1.6 0.00 0.00 0.00 73 1009.8
20260505011502 15 288 0.0 1.6 0.00 0.00 0.00 73 1009.7
20260505011003 15 288 0.0 1.6 0.00 0.00 0.00 72 1009.7
20260505010502 15 293 0.0 1.6 0.00 0.00 0.00 72 1009.7
20260505010002 15 310 0.0 1.6 0.00 0.00 0.00 72 1009.8
20260505005505 15 295 0.0 1.6 0.00 0.00 0.00 72 1009.7
20260505005002 15 294 0.0 1.6 0.00 0.00 0.00 71 1009.7
20260505004502 16 280 0.0 1.6 0.00 0.00 0.00 71 1009.8
20260505004002 16 269 0.0 1.6 0.00 0.00 0.00 71 1009.8
20260505003502 16 248 0.0 1.6 0.00 0.00 0.00 71 1009.9
20260505003002 16 0 0.0 0.0 0.00 0.00 0.00 71 1009.8
20260505002502 15 0 0.0 0.0 0.00 0.00 0.00 71 1009.7
20260505002002 15 0 0.0 0.0 0.00 0.00 0.00 72 1009.7
20260505001502 16 0 0.0 0.0 0.00 0.00 0.00 71 1009.8
20260505001002 16 208 0.0 1.6 0.00 0.00 0.00 71 1009.7
20260505000503 16 204 1.6 1.6 0.00 0.00 0.00 71 1009.5
20260505000002 16 199 1.6 3.2 0.00 0.00 0.00 71 1009.5
20260504235502 16 198 1.6 3.2 0.00 0.00 0.00 71 1009.6
20260504235003 16 198 1.6 3.2 0.00 0.00 0.00 71 1009.6
20260504234502 16 310 0.0 1.6 0.00 0.00 0.00 70 1009.4
20260504234002 16 321 0.0 1.6 0.00 0.00 0.00 71 1009.3
20260504233502 16 330 0.0 1.6 0.00 0.00 0.00 71 1009.3
20260504233002 16 330 0.0 1.6 0.00 0.00 0.00 71 1009.3
20260504232502 16 0 0.0 0.0 0.00 0.00 0.00 71 1009.2
20260504232002 16 0 0.0 0.0 0.00 0.00 0.00 70 1009.3
20260504231502 16 0 0.0 0.0 0.00 0.00 0.00 70 1009.5
20260504231002 16 193 0.0 1.6 0.00 0.00 0.00 70 1009.4
20260504230502 16 191 1.6 4.8 0.00 0.00 0.00 70 1009.4
20260504230002 16 186 1.6 4.8 0.00 0.00 0.00 70 1009.5
20260504225502 16 211 1.6 4.8 0.00 0.00 0.00 69 1009.5
20260504225002 16 217 1.6 6.4 0.00 0.00 0.00 68 1009.4
20260504224502 16 227 3.2 14.5 0.00 0.00 0.00 68 1009.4
20260504224002 16 232 6.4 14.5 0.00 0.00 0.00 67 1009.3
20260504223502 16 231 8.0 12.9 0.00 0.00 0.00 67 1009.3
20260504223002 16 244 6.4 12.9 0.00 0.00 0.00 67 1009.3
20260504222502 17 267 4.8 11.3 0.00 0.00 0.00 66 1009.3
20260504222002 17 285 4.8 11.3 0.00 0.00 0.00 65 1009.0
20260504221502 17 293 4.8 11.3 0.00 0.00 0.00 65 1008.9
20260504221002 17 315 4.8 11.3 0.00 0.00 0.00 65 1008.6
20260504220502 17 325 6.4 11.3 0.00 0.00 0.00 65 1008.5
20260504220002 17 325 4.8 9.7 0.00 0.00 0.00 64 1008.3
20260504215502 18 315 3.2 8.0 0.00 0.00 0.00 63 1008.3
20260504215002 18 308 1.6 4.8 0.00 0.00 0.00 63 1008.3
20260504214502 18 309 1.6 3.2 0.00 0.00 0.00 62 1008.3
20260504214002 18 305 1.6 3.2 0.00 0.00 0.00 62 1008.3
20260504213502 18 318 3.2 9.7 0.00 0.00 0.00 62 1008.2
20260504213002 18 321 4.8 9.7 0.00 0.00 0.00 61 1008.2
20260504212502 18 322 4.8 11.3 0.00 0.00 0.00 61 1008.0
20260504212002 18 326 6.4 11.3 0.00 0.00 0.00 60 1008.0
20260504211502 19 321 6.4 9.7 0.00 0.00 0.00 60 1008.0
20260504211002 19 318 4.8 9.7 0.00 0.00 0.00 59 1008.0
20260504210502 19 324 4.8 9.7 0.00 0.00 0.00 59 1008.0
20260504210003 20 319 4.8 9.7 0.00 0.00 0.00 58 1007.9
20260504205502 20 314 3.2 9.7 0.00 0.00 0.00 57 1008.1
20260504205002 20 317 3.2 8.0 0.00 0.00 0.00 55 1007.8
20260504204502 20 323 3.2 6.4 0.00 0.00 0.00 51 1007.7
20260504204002 20 316 3.2 6.4 0.00 0.00 0.00 49 1007.7
20260504203502 21 293 4.8 9.7 0.00 0.00 0.00 48 1007.6
20260504203002 21 282 4.8 9.7 0.00 0.00 0.00 48 1007.6
20260504202502 21 273 4.8 9.7 0.00 0.00 0.00 48 1007.6
20260504202002 21 268 4.8 9.7 0.00 0.00 0.00 47 1007.4
20260504201502 21 271 4.8 11.3 0.00 0.00 0.00 47 1007.4
20260504201002 21 262 6.4 11.3 0.00 0.00 0.00 48 1007.3
20260504200502 21 253 8.0 14.5 0.00 0.00 0.00 48 1007.4
20260504200002 21 250 8.0 14.5 0.00 0.00 0.00 48 1007.5
20260504195502 21 247 8.0 12.9 0.00 0.00 0.00 48 1007.5
20260504195002 21 247 9.7 19.3 0.00 0.00 0.00 47 1007.5
20260504194502 21 247 9.7 19.3 0.00 0.00 0.00 47 1007.3
20260504194002 21 244 9.7 16.1 0.00 0.00 0.00 47 1007.4
20260504193502 21 242 9.7 16.1 0.00 0.00 0.00 47 1007.3
20260504193002 21 238 9.7 17.7 0.00 0.00 0.00 46 1007.3
20260504192502 21 240 11.3 19.3 0.00 0.00 0.00 46 1007.4
20260504192002 21 243 12.9 20.9 0.00 0.00 0.00 46 1007.4
20260504191502 21 243 12.9 20.9 0.00 0.00 0.00 46 1007.4
20260504191002 21 243 11.3 22.5 0.00 0.00 0.00 45 1007.4
20260504190502 21 242 11.3 22.5 0.00 0.00 0.00 44 1007.4
20260504190002 21 243 12.9 20.9 0.00 0.00 0.00 46 1007.4
20260504185502 21 253 9.7 20.9 0.00 0.00 0.00 46 1007.4
20260504185002 21 286 8.0 16.1 0.00 0.00 0.00 50 1007.3
20260504184502 21 295 9.7 17.7 0.00 0.00 0.00 51 1007.4
20260504184002 21 286 9.7 17.7 0.00 0.00 0.00 51 1007.4
20260504183502 21 278 9.7 16.1 0.00 0.00 0.00 52 1007.5
20260504183002 21 288 9.7 16.1 0.00 0.00 0.00 53 1007.6
20260504182502 20 296 6.4 16.1 0.00 0.00 0.00 52 1007.4
20260504182002 20 310 8.0 19.3 0.00 0.00 0.00 54 1007.4
20260504181502 20 321 11.3 19.3 0.00 0.00 0.00 55 1007.4
20260504181002 20 320 12.9 17.7 0.00 0.00 0.00 56 1007.5
20260504180502 20 310 11.3 19.3 0.00 0.00 0.00 55 1007.4
20260504180002 20 313 9.7 19.3 0.00 0.00 0.00 55 1007.4
20260504175502 20 328 11.3 22.5 0.00 0.00 0.00 57 1007.4
20260504175002 19 321 12.9 24.1 0.00 0.00 0.00 57 1007.3
20260504174502 19 322 14.5 24.1 0.00 0.00 0.00 56 1007.5
20260504174002 19 327 14.5 22.5 0.00 0.00 0.00 58 1007.7
20260504173502 19 323 11.3 22.5 0.00 0.00 0.00 58 1007.7
20260504173002 19 324 11.3 22.5 0.00 0.00 0.00 58 1007.8
20260504172502 18 328 12.9 22.5 0.00 0.00 0.00 58 1007.6
20260504172002 18 333 12.9 22.5 0.00 0.00 0.00 57 1007.6
20260504171502 18 335 14.5 25.7 0.00 0.00 0.00 58 1007.7
20260504171003 18 333 19.3 27.4 0.00 0.00 0.00 58 1007.7
20260504170502 18 330 16.1 27.4 0.00 0.00 0.00 57 1007.6
20260504151002 16 313 12.9 24.1 0.00 0.00 0.00 62 1008.7
20260504141003 14 296 12.9 20.9 0.00 0.00 0.00 63 1008.8
20260504140503 14 296 11.3 20.9 0.00 0.00 0.00 63 1008.7